Location: Peterborough
(44.3091°N, 78.3197°W)
Time: 17:23:04
(UTC-04:00)

Transit 4A - Pass Details

Date: 27 March 2023
Orbit: 864 x 980 km, 66.8° (Epoch: 04 June)

Event Time Altitude Azimuth Distance (km) Brightness Sun altitude
Rises 14:33:31 0° 332° (NNW) 3,550 10.7 45.2°
Reaches altitude 10° 14:36:19 10° 343° (NNW) 2,625 10.1 45.0°
Maximum altitude 14:41:43 32° 45° (NE) 1,565 9.0 44.5°
Drops below altitude 10° 14:47:15 10° 107° (ESE) 2,684 10.3 44.0°
Sets 14:50:07 0° 117° (ESE) 3,642 11.0 43.8°
